Weather in Blagodarnoye

Russia / Orenburg Oblast     52°00′12″N   53°02′38″E
temp.,
°C
wind,
m/s
gust,
m/s
humid.,
%
clouds,
%
prec.,
mm/h
press.,
hPa
HPBL,
m
28 february, sun
sun2823:000sw5898100 0.8 1000450
02:000sw5998100 0.6 999478
05:000sw5998100 1.9 999479
08:00−2wnw4697100 0.8 1000284
11:00−11nnw589494 0.9 1001246
14:00−10nw689399 0.2 1004343
17:00−12nw699399 0.4 1007388
20:00−14nw599499 0.1 1010319
1 march, mon
mon123:00−14nw489592 0.2 1012248
02:00−15wnw369687 0.1 1014167
05:00−17wnw359791 0.1 1016106
08:00−16nw369699 0.1 1017183
11:00−15nw359494 0.1 1019240
14:00−14nw459395 0.1 1020307
17:00−14nw359497 0.1 1021294
20:00−19nw349750 0.0 102238
2 march, tue
tue223:00−21nw339827 0.0 102328
02:00−22w22990 0.0 102320
05:00−23sw2310023 0.0 102221
08:00−22ssw3510083 0.0 102088
11:00−18ssw699992 0.1 1018258
14:00−12ssw81295100 0.1 1014441
17:00−8ssw91595100 0.5 1011685
20:00−4ssw81596100 1.3 1008876
3 march, wed
wed323:00−3ssw81496100 2.3 1005724
02:00−3sw71396100 1.2 1002598
05:00−3sw61197100 2.1 1001422
08:00−4wsw4797100 0.9 1001194
11:00−4w469697 1.2 1002287
14:00−3w469699 0.4 1002349
17:00−3w589699 1.4 1003478
20:00−3w5997100 0.8 1005386
4 march, thu
thu423:00−6nw359699 1.1 100794
02:00−7nw479691 0.1 1007142
05:00−8wnw479780 0.1 1009140
08:00−10nw499686 0.0 1011181
11:00−9nw599484 0.1 1014293
14:00−7wnw579383 0.0 1015334
17:00−8w589380 0.0 1016343
20:00−11sw5109762 0.0 1017212